sat.trackr.live / text

‹ back to catalog

STARLINK-5279

NORAD 54165 · 2022-141J

PAYLOAD ACTIVE UNKNOWN

§ Identity

Operator
Country
US
Launch date
2022-10-28
Launch site
AFWTR
Launch vehicle
Mass (kg)
RCS (m²)

Purposes: comms

External: N2YO · Heavens-Above · Gunter

§ Orbital elements

Epoch: 2026-09-20T22:00:03.000096Z

Period
93.91 min
Inclination
53.1614°
Eccentricity
0.0001295
Mean motion
15.33425059 rev/d
Perigee alt
464.7 km
Apogee alt
466.5 km
Semi-major
6,843.7 km
B*
1.1023e-3
RAAN
215.5259°
Arg perigee
89.7390°
Mean anomaly
200.6468°
Rev number
574

§ Raw data

STARLINK-52791 54165U 22141J   26263.91670139  .00035910  00000+0  11023-2 0  99922 54165  53.1614 215.5259 0001295  89.7390 200.6468 15.33425059  5744

JSON: /api/v1/satellites/54165 · /tle

For live sub-satellite position, see the globe view (requires WebGL).

§ Visibility from observer

Set your observer location to see the next 7 days of passes ≥ 10°. The values pass through the URL so the page stays shareable.

No JS? Fill the form by hand. The geolocation button needs JavaScript.